Kezdőlap
METAR-TAF:

METAR-TAF

Repülőterek :

Denison Municipal Airport

Denison, Iowa, Amerikai Egyesült Államok

földrajzi szélesség: 41-59N, földrajzi hosszúság: 095-23W, magasság: 388 m

Jelenlegi meteorológiai megfigyelések

A jelentés 7 perccel ezelõtt készült, 10:15 UTC
Keleti szél 10 kt
Hőmérséklet 16°C
Páratartalom 45%
Légköri nyomás 1014 hPa
Látótávolság: 16.1 km
Szakadozott felhőzet 9500 lábon

METAR: KDNS 171015Z AUTO 09010KT 10SM BKN095 16/04 A2995 RMK AO2

Idő: 05:22 (10:22 UTC)


TAF: hiányzik

Meteorológiai megfigyelések és előrejelzések több, mint 4000 repülőtéren (METAR és TAF jelentéseket).

A térképen piros és sárga pontok jelzik az elérhető meteorológiai állomásokat.

Mozgassa az egeret a pont fölött, hogy megjelenjen az állomás neve.

Azután kattintson az időjárási megfigyelések és előrejelzések megtekintéséhez.

A térkép megváltoztatása: kattintson a fekete keresztel jelölt zöld gombra ráközelítéshez, a vonallal jelölt zöld gombra távolításhoz, vagy a zöld nyilakra a szomszédos térképek eléréséhez.


METAR-TAF: